sat.trackr.live / text

‹ back to catalog

CHUANGXIN 16B (CX-16B)

NORAD 53876 · 2022-102B

PAYLOAD ACTIVE UNKNOWN

§ Identity

Operator
Country
PRC
Launch date
2022-08-23
Launch site
XICLF
Launch vehicle
Mass (kg)
RCS (m²)

External: N2YO · Heavens-Above · Gunter

§ Orbital elements

Epoch: 2026-09-20T05:22:32.888064Z

Period
92.68 min
Inclination
28.9885°
Eccentricity
0.0001631
Mean motion
15.53722186 rev/d
Perigee alt
404.8 km
Apogee alt
407.0 km
Semi-major
6,784.0 km
B*
6.9223e-4
RAAN
246.8085°
Arg perigee
237.8853°
Mean anomaly
122.1600°
Rev number
22,146

§ Raw data

CHUANGXIN 16B (CX-16B)1 53876U 22102B   26263.22399176  .00046465  00000+0  69223-3 0  99932 53876  28.9885 246.8085 0001631 237.8853 122.1600 15.53722186221468

JSON: /api/v1/satellites/53876 · /tle

For live sub-satellite position, see the globe view (requires WebGL).

§ Visibility from observer

Set your observer location to see the next 7 days of passes ≥ 10°. The values pass through the URL so the page stays shareable.

No JS? Fill the form by hand. The geolocation button needs JavaScript.